This demonstration page uses our WeatherBlox Daily Observations layout. Learn more.

38.89511, -77.03637

Hourly Observations for July 28, 2019

Temp ( °F °C ) Dew Point ( °F °C ) Humidity (%) Winds ( mph kmh ) Pressure ( in mb ) Visibility ( mi km ) Precip ( " mm )
12:52 am 00:52 Mostly Cloudy 77 25 63 17.2 62 62 S 10 17 30.18 1022 10 16.09344 0 0
1:52 am 01:52 Cloudy 77 25 64 17.8 64 64 S 9 15 30.18 1022 10 16.09344 0 0
2:52 am 02:52 Mostly Cloudy 76 24.4 64 17.8 67 67 SSW 6 9 30.15 1021 10 16.09344 0 0
3:52 am 03:52 Mostly Cloudy 75 23.9 64 17.8 69 69 SSW 6 9 30.15 1021 10 16.09344 0 0
5:52 am 05:52 Mostly Cloudy 73 22.8 65 18.3 76 76 S 5 7 30.15 1021 10 16.09344 0 0
6:52 am 06:52 Mostly Sunny 73 22.8 66 18.9 79 79 SSW 6 9 30.15 1021 10 16.09344 0 0
7:52 am 07:52 Mostly Sunny 76 24.4 65 18.3 69 69 SSW 7 11 30.18 1022 10 16.09344 0 0
8:52 am 08:52 Sunny 78 25.6 65 18.3 64 64 SSW 6 9 30.18 1022 10 16.09344 0 0
9:52 am 09:52 Sunny 80 26.7 68 20 67 67 SSE 6 9 30.18 1022 10 16.09344 0 0
10:52 am 10:52 Sunny 84 28.9 69 20.6 61 61 S 7 11 30.15 1021 10 16.09344 0 0
11:52 am 11:52 Mostly Sunny 88 31.1 67 19.4 50 50 ESE 5 7 30.15 1021 10 16.09344 0 0
12:52 pm 12:52 Partly Cloudy 90 32.2 64 17.8 42 42 E 3 6 30.12 1020 10 16.09344 0 0
1:52 pm 13:52 Partly Cloudy with Light Rain 90 32.2 66 18.9 45 45 S 7 11 30.09 1019 10 16.09344 0.001 0.001
2:52 pm 14:52 Mostly Cloudy 89 31.7 66 18.9 47 47 SE 6 9 30.09 1019 10 16.09344 0 0
3:52 pm 15:52 Mostly Cloudy 88 31.1 67 19.4 50 50 S 10 17 30.06 1018 10 16.09344 0 0
4:52 pm 16:52 Mostly Cloudy 91 32.8 65 18.3 42 42 SSE 7 11 30.06 1018 10 16.09344 0 0
5:52 pm 17:52 Partly Cloudy 92 33.3 62 16.7 37 37 Calm 30.03 1017 10 16.09344 0 0
6:52 pm 18:52 Mostly Cloudy 91 32.8 62 16.7 38 38 SW 12 19 30.03 1017 10 16.09344 0 0
7:52 pm 19:52 Partly Cloudy 86 30 69 20.6 57 57 S 7 11 30.03 1017 10 16.09344 0 0
8:52 pm 20:52 Partly Cloudy 84 28.9 71 21.7 65 65 S 6 9 30.06 1018 10 16.09344 0 0
9:52 pm 21:52 Mostly Clear 82 27.8 69 20.6 65 65 S 7 11 30.06 1018 10 16.09344 0 0
10:52 pm 22:52 Mostly Clear 81 27.2 69 20.6 67 67 S 8 13 30.06 1018 10 16.09344 0 0
11:52 pm 23:52 Mostly Clear 80 26.7 70 21.1 71 71 S 8 13 30.06 1018 10 16.09344 0 0

Powered by AerisWeather